| time (UTC) | temp C | wind direction | speed KPH | gust KPH | rain 1hr cm | rain 24hr cm | rain mn cm | humidity % | barometer mb |
| 20260504223345 | 10 | 310 | 11.3 | 27.4 | 0.00 | 0.20 | 0.00 | 71 | 1027.9 |
| 20260504220322 | 8 | 210 | 8.0 | 20.9 | 0.00 | 2.79 | 0.00 | 74 | 1027.6 |
| 20260504213322 | 8 | 325 | 14.5 | 24.1 | 0.00 | 2.79 | 0.00 | 76 | 1026.9 |
| 20260504210319 | 7 | 306 | 6.4 | 11.3 | 0.00 | 3.10 | 0.00 | 80 | 1026.8 |
| 20260504203320 | 7 | 283 | 4.8 | 8.0 | 0.00 | 3.10 | 0.00 | 81 | 1026.4 |
| 20260504200318 | 6 | 86 | 3.2 | 22.5 | 0.00 | 3.20 | 0.00 | 82 | 1025.6 |
| 20260504193317 | 6 | 1 | 8.0 | 22.5 | 0.00 | 3.20 | 0.00 | 83 | 1024.9 |
| 20260504190316 | 6 | 302 | 4.8 | 25.7 | 0.00 | 3.91 | 0.00 | 82 | 1024.5 |
| 20260504183316 | 6 | 307 | 8.0 | 19.3 | 0.00 | 3.91 | 0.00 | 81 | 1023.9 |
| 20260504180334 | 6 | 323 | 6.4 | 22.5 | 0.00 | 5.31 | 0.00 | 82 | 1023.3 |
| 20260504173334 | 6 | 298 | 6.4 | 17.7 | 0.00 | 5.31 | 0.00 | 81 | 1022.7 |
| 20260504170332 | 6 | 300 | 12.9 | 27.4 | 0.00 | 6.10 | 0.00 | 81 | 1022.3 |
| 20260504160330 | 7 | 291 | 16.1 | 35.4 | 0.00 | 6.20 | 0.00 | 78 | 1020.8 |
| 20260504150326 | 7 | 301 | 8.0 | 32.2 | 0.00 | 6.20 | 1.24 | 77 | 1019.2 |
| 20260504140346 | 8 | 324 | 14.5 | 32.2 | 0.00 | 6.20 | 1.24 | 80 | 1018.5 |
| 20260504130323 | 8 | 312 | 16.1 | 41.8 | 0.00 | 6.50 | 1.24 | 83 | 1017.8 |
| 20260504120316 | 9 | 330 | 22.5 | 43.5 | 0.00 | 6.81 | 1.24 | 82 | 1015.6 |
| 20260504110334 | 12 | 307 | 14.5 | 32.2 | 0.00 | 6.81 | 1.24 | 72 | 1014.1 |
| 20260504100332 | 12 | 228 | 12.9 | 40.2 | 0.00 | 6.81 | 1.24 | 73 | 1012.3 |
| 20260504080326 | 13 | 307 | 14.5 | 45.1 | 0.10 | 6.81 | 1.24 | 73 | 1010.4 |
| 20260504070325 | 13 | 312 | 6.4 | 16.1 | 0.00 | 6.71 | 1.22 | 78 | 1010.1 |
| 20260504050321 | 16 | 293 | 9.7 | 29.0 | 0.00 | 6.71 | 1.22 | 76 | 1009.0 |
| 20260504043340 | 16 | 274 | 11.3 | 30.6 | 0.00 | 6.71 | 1.22 | 78 | 1009.4 |
| 20260504040318 | 16 | 288 | 6.4 | 20.9 | 0.00 | 6.71 | 1.22 | 77 | 1009.3 |
| 20260504033317 | 17 | 299 | 4.8 | 17.7 | 0.00 | 6.71 | 1.22 | 76 | 1009.2 |
| 20260504030354 | 17 | 316 | 8.0 | 24.1 | 0.00 | 6.71 | 1.22 | 75 | 1009.1 |
| 20260504023333 | 18 | 347 | 11.3 | 24.1 | 0.00 | 6.71 | 1.22 | 75 | 1008.9 |
| 20260504020332 | 17 | 339 | 9.7 | 33.8 | 0.00 | 6.71 | 1.22 | 77 | 1009.3 |
| 20260504013331 | 16 | 303 | 8.0 | 25.7 | 0.00 | 6.71 | 1.22 | 78 | 1009.2 |
| 20260504010329 | 16 | 260 | 3.2 | 16.1 | 0.00 | 6.71 | 1.22 | 82 | 1009.5 |
| 20260504003330 | 16 | 319 | 8.0 | 27.4 | 0.00 | 6.71 | 1.22 | 86 | 1009.4 |
| 20260504000327 | 15 | 297 | 6.4 | 11.3 | 0.10 | 6.71 | 1.22 | 90 | 1009.8 |
| 20260503233327 | 15 | 252 | 3.2 | 14.5 | 0.10 | 6.71 | 1.22 | 94 | 1009.1 |
| 20260503230325 | 15 | 218 | 0.0 | 4.8 | 0.00 | 6.60 | 1.19 | 96 | 1008.6 |